Flag for Germany Weather past 2 weeks in Görlitz, Saxony, Germany

Now
64 °F

Fog.


Feels Like: 64 °F
Forecast: 58 / 76 °F
Wind: 1 mph from Southeast

Location: Goerlitz

Current Time: Jul 30, 2014 at 5:20:50 AM

Latest Report: Jul 30, 2014 at 5:00 AM


Visibility: 3 mi

Pressure: 29.72 "Hg

Humidity: 98%

Dew point: 63 °F

Location of GörlitzLocation

Historic Weather in Görlitz — Graph

°F

Görlitz temperature yesterday

Maximum temperature yesterday: 79 °F (at 1:00 PM)
Minimum temperature yesterday: 62 °F (at 3:00 AM)
Average temperature yesterday: 70 °F

Past Weeks' High & Low Weather Summary

 TemperatureHumidityPressure
High91 °F (Jul 20, 6:00 PM)99% (Jul 26, 5:00 AM)30.16 "Hg (Jul 26, 5:00 AM)
Low55 °F (Jul 24, 4:00 AM)24% (Jul 23, 5:00 PM)29.69 "Hg (Jul 29, 7:00 PM)
Average71 °F72%29.95 "Hg
* Reported Jul 15 4:00 AM — Jul 30 4:00 AM, Görlitz, Weather by CustomWeather, © 2014

Note: Actual official high and low records may vary slightly from our data, if they occured in-between our weather recording intervals... More about our weather records

Advertising

Görlitz weather history for previous 24 hours

 ConditionsComfort  
Time TempWeatherWind HumidityBarometerVisibility
4:00 AM
Jul 30
64 °FClear.1 mph96%29.72 "Hg2 mi
3:00 AM65 °FPassing clouds.1 mph96%29.71 "Hg7 mi
2:00 AM66 °FPassing clouds.1 mph96%29.71 "Hg10 mi
1:00 AM66 °FPassing clouds.2 mph96%29.71 "Hg10 mi
12:00 AM67 °FPassing clouds.3 mph96%29.72 "Hg10 mi
11:00 PM
Jul 29
67 °FOvercast.2 mph95%29.74 "Hg10 mi
10:00 PM68 °FThunderstorms. Overcast.3 mph92%29.73 "Hg7 mi
9:00 PM72 °FOvercast.2 mph79%29.72 "Hg14 mi
8:00 PM75 °FPartly sunny.2 mph69%29.71 "Hg14 mi
7:00 PM76 °FPartly sunny.3 mph67%29.69 "Hg11 mi
6:00 PM78 °FPartly sunny.3 mph63%29.70 "Hg11 mi
5:00 PM78 °FPartly sunny.3 mph68%29.70 "Hg13 mi
4:00 PM73 °FOvercast.2 mph79%29.74 "Hg13 mi
3:00 PM75 °FOvercast.5 mph77%29.75 "Hg11 mi
2:00 PM74 °FSprinkles. Overcast.5 mph82%29.76 "Hg10 mi
1:00 PM79 °FOvercast.2 mph63%29.76 "Hg13 mi
12:00 PM76 °FOvercast.2 mph68%29.76 "Hg12 mi
11:00 AM76 °FPartly sunny.3 mph71%29.76 "Hg12 mi
10:00 AM73 °FOvercast.2 mph76%29.78 "Hg10 mi
9:00 AM70 °FPartly sunny.2 mph85%29.79 "Hg9 mi
8:00 AM67 °FPassing clouds.2 mph89%29.78 "Hg7 mi
7:00 AM65 °FScattered clouds.1 mph95%29.79 "Hg6 mi
6:00 AM63 °FOvercast.1 mph98%29.81 "Hg9 mi
5:00 AM63 °FOvercast.1 mph96%29.82 "Hg9 mi
Weather by CustomWeather, © 2014

See weather overviewHow to use our weather pages